Regional Weather Roundup
Issued by NWS

Home | Current Version | Previous Version | Text Only | Print | Product List | Glossary On
Versions: 1 2 3 4 5 6 7 8 9 10 11 12 13 14 15 16 17 18 19 20 21 22 23 24 25 26 27 28 29 30 31 32 33 34 35 36 37 38 39 40 41 42 43 44 45 46 47 48 49 50
000
ASUS46 KSTO 261115
RWRCA

NORTHERN AND CENTRAL CA REGIONAL WEATHER ROUNDUP
NATIONAL WEATHER SERVICE SACRAMENTO CA
400 AM PDT MON JUN 26 2017

NOTE: FAIR INDICATES FEW OR NO CLOUDS BELOW 12,000 FEET WITH NO
SIGNIFICANT WEATHER AND/OR OBSTRUCTIONS TO VISIBILITY.

CAZ001-003-261200-
NORTHWEST AREA

CITY           SKY/WX    TMP DP  RH WIND       PRES   REMARKS
CRESCENT CITY  CLOUDY    55  55 100 S3        30.02S
UKIAH          CLOUDY    57  54  89 S5        29.99S
$$

CAZ006-505>513-261200-
BAY AREA

CITY           SKY/WX    TMP DP  RH WIND       PRES   REMARKS
SANTA ROSA     CLOUDY    58  55  90 SW3       29.99S
SAN RAFAEL     N/A       59  MM  MM MISG
NAPA           CLOUDY    61  54  77 W16       29.99S
CONCORD        CLOUDY    61  54  77 W12       30.00S
OAKLAND CITY   N/A      MM  MM  MM MISG
OAKLAND        CLOUDY    62  55  77 W12       30.02F
SAN FRAN CITY  N/A       59  MM  81 MISG
SAN FRAN ARPT  CLOUDY    60  53  77 W6        30.01F
LIVERMORE      CLOUDY    58  54  86 W12       30.00F
HAYWARD        CLOUDY    62  52  69 W9        30.02S
REDWOOD CITY   N/A       60  MM  81 MISG
MOFFETT ARPT   CLOUDY    60  54  80 NW8       30.03S
SAN JOSE ARPT  CLOUDY    61  55  81 NW8       30.02S
$$
CAZ034-037-514>518-261200-
CENTRAL COAST

CITY           SKY/WX    TMP DP  RH WIND       PRES   REMARKS
WATSONVILLE    CLEAR     53  53 100 NW3       30.02S
SALINAS        CLEAR     57  52  83 NW6       30.00F
MONTEREY       CLEAR     56  51  84 CALM      30.01F
SAN LUIS OBISP CLEAR     51  48  89 CALM      29.97F
SANTA MARIA    CLEAR     51  49  92 SE3       29.98F
$$
CAZ015-016-261200-
NORTHERN SACRAMENTO VALLEY

CITY           SKY/WX    TMP DP  RH WIND       PRES   REMARKS
REDDING        CLEAR     74  55  51 S6        29.90S
RED BLUFF      CLEAR     69  57  65 SE6       29.92R
OROVILLE       CLEAR     65  54  67 SE12      29.92S
$$
CAZ016>018-261200-
SOUTHERN SACRAMENTO VALLEY

CITY           SKY/WX    TMP DP  RH WIND       PRES   REMARKS
AUBURN         CLEAR     72  39  30 E8        29.97S
BEALE AFB      CLEAR     62  53  72 S13       29.90S
LINCOLN        FAIR      59  52  77 S9        29.93S
MARYSVILLE     CLEAR     61  54  77 S17       29.92S
SAC INTL ARPT  CLEAR     58  55  90 S14       29.91S
MATHER AIRPORT NOT AVBL
DOWNTOWN SAC   N/A       59  MM  MM MISG
SAC EXEC ARPT  CLEAR     58  55  90 MISG      29.94S
VACAVILLE      CLEAR     61  54  77 SW13      29.91S
TRAVIS AFB     CLEAR     57  53  85 SW29G36   29.91F
$$
CAZ019>021-261200-
SAN JOAQUIN VALLEY

CITY           SKY/WX    TMP DP  RH WIND       PRES   REMARKS
STOCKTON       CLEAR     60  54  80 NW10      29.95S
MODESTO        CLEAR     62  54  74 N9        29.94S
MERCED         CLEAR     65  51  60 NW13      29.92F
LEMOORE        CLEAR     67  51  56 NW6       29.92R
FRESNO         CLEAR     70  53  54 NW10      29.92R
HANFORD        CLEAR     71  58  63 NW9       29.91S
PORTERVILLE      N/A     70  57  63 S7        29.93R
BAKERSFIELD    CLEAR     76  51  41 CALM      29.93S
$$
CAZ011-012-071-261200-
NORTHERN MOUNTAINS

CITY           SKY/WX    TMP DP  RH WIND       PRES   REMARKS
YREKA          CLEAR     54  53  97 NE5       30.00F
MOUNT SHASTA   CLEAR     55  51  86 CALM      30.05F
ALTURAS        CLEAR     57  49  74 CALM      30.11F
$$
CAZ011-012-071-261200-
SIERRA NEVADA MTNS

CITY           SKY/WX    TMP DP  RH WIND       PRES   REMARKS
BLUE CANYON    CLEAR     67  45  45 SE3       30.19F
TRUCKEE        CLEAR     46  45  93 CALM      30.24F
TAHOE VLY ARPT CLEAR     50  46  86 S3        30.25F
MAMMOTH LAKES  FAIR      49  40  71 CALM      30.30F
$$



USA.gov is the U.S. government's official web portal to all federal, state and local government web resources and services.